| time (UTC) | temp F | wind direction | speed MPH | gust MPH | rain 1hr in | rain 24hr in | rain mn in | humidity % | barometer mb |
| 20260509091025 | 54 | 318 | 14.0 | 23.0 | 0.00 | 0.07 | 0.00 | 76 | 998.0 |
| 20260509090100 | 54 | 337 | 12.0 | 17.0 | 0.00 | 0.12 | 0.00 | 75 | 997.9 |
| 20260509085035 | 54 | 322 | 15.0 | 26.0 | 0.00 | 0.27 | 0.00 | 74 | 997.8 |
| 20260509084030 | 54 | 326 | 13.0 | 26.0 | 0.00 | 0.37 | 0.00 | 74 | 997.5 |
| 20260509083025 | 55 | 313 | 18.0 | 33.0 | 0.00 | 0.46 | 0.00 | 73 | 997.3 |
| 20260509082020 | 55 | 308 | 21.0 | 34.0 | 0.00 | 0.49 | 0.00 | 74 | 997.5 |
| 20260509081035 | 55 | 312 | 21.0 | 34.0 | 0.00 | 0.54 | 0.00 | 75 | 997.5 |
| 20260509080030 | 55 | 313 | 22.0 | 33.0 | 0.00 | 0.55 | 0.00 | 75 | 997.3 |
| 20260509075025 | 55 | 316 | 23.0 | 40.0 | 0.00 | 0.56 | 0.00 | 75 | 997.1 |
| 20260509074020 | 55 | 312 | 24.0 | 41.0 | 0.00 | 0.57 | 0.00 | 75 | 996.9 |
| 20260509073055 | 55 | 307 | 20.0 | 33.0 | 0.00 | 0.60 | 0.00 | 74 | 997.1 |
| 20260509072030 | 55 | 306 | 21.0 | 30.0 | 0.00 | 0.60 | 0.00 | 76 | 997.4 |
| 20260509071045 | 55 | 311 | 23.0 | 34.0 | 0.00 | 0.62 | 0.00 | 75 | 997.3 |
| 20260509070021 | 55 | 300 | 25.0 | 36.0 | 0.00 | 0.65 | 0.00 | 76 | 997.5 |
| 20260509065016 | 55 | 301 | 22.0 | 41.0 | 0.00 | 0.69 | 0.00 | 78 | 997.4 |
| 20260509064031 | 55 | 307 | 19.0 | 31.0 | 0.00 | 0.73 | 0.00 | 80 | 997.2 |
| 20260509063026 | 55 | 314 | 19.0 | 33.0 | 0.00 | 0.75 | 0.00 | 80 | 997.0 |
| 20260509062021 | 55 | 311 | 18.0 | 30.0 | 0.00 | 0.75 | 0.00 | 81 | 997.1 |
| 20260509061017 | 54 | 318 | 19.0 | 30.0 | 0.00 | 0.75 | 0.00 | 83 | 997.2 |
| 20260509060032 | 54 | 327 | 15.0 | 26.0 | 0.00 | 0.77 | 0.00 | 83 | 997.2 |
| 20260509055026 | 55 | 321 | 22.0 | 33.0 | 0.00 | 0.77 | 0.00 | 83 | 997.1 |
| 20260509054021 | 55 | 322 | 15.0 | 23.0 | 0.00 | 0.78 | 0.00 | 82 | 997.1 |
| 20260509053036 | 55 | 324 | 16.0 | 28.0 | 0.00 | 0.78 | 0.00 | 82 | 997.1 |
| 20260509052030 | 55 | 336 | 16.0 | 26.0 | 0.00 | 0.78 | 0.00 | 82 | 997.2 |
| 20260509051025 | 55 | 329 | 15.0 | 25.0 | 0.00 | 0.78 | 0.00 | 82 | 997.2 |
| 20260509050019 | 55 | 333 | 15.0 | 24.0 | 0.00 | 0.78 | 0.00 | 82 | 997.0 |
| 20260509045034 | 56 | 334 | 16.0 | 27.0 | 0.00 | 0.78 | 0.00 | 80 | 996.9 |
| 20260509044028 | 56 | 318 | 18.0 | 28.0 | 0.00 | 0.78 | 0.00 | 80 | 997.1 |
| 20260509043022 | 57 | 312 | 17.0 | 28.0 | 0.00 | 0.78 | 0.00 | 79 | 997.2 |
| 20260509042018 | 57 | 306 | 17.0 | 29.0 | 0.00 | 0.78 | 0.00 | 79 | 997.5 |
| 20260509041033 | 57 | 309 | 18.0 | 30.0 | 0.00 | 0.78 | 0.00 | 79 | 997.5 |
| 20260509040028 | 57 | 302 | 15.0 | 27.0 | 0.00 | 0.78 | 0.00 | 81 | 997.5 |
| 20260509035043 | 57 | 317 | 12.0 | 20.0 | 0.00 | 0.78 | 0.00 | 82 | 997.7 |
| 20260509034018 | 57 | 326 | 11.0 | 20.0 | 0.00 | 0.78 | 0.00 | 82 | 997.6 |
| 20260509033033 | 57 | 325 | 11.0 | 20.0 | 0.00 | 0.78 | 0.00 | 81 | 997.5 |
| 20260509032028 | 57 | 337 | 11.0 | 20.0 | 0.00 | 0.78 | 0.00 | 80 | 997.5 |
| 20260509031023 | 58 | 328 | 12.0 | 21.0 | 0.00 | 0.78 | 0.00 | 78 | 997.4 |
| 20260509030018 | 59 | 312 | 14.0 | 26.0 | 0.00 | 0.78 | 0.00 | 77 | 997.1 |
| 20260509025033 | 60 | 310 | 15.0 | 25.0 | 0.00 | 0.78 | 0.00 | 75 | 997.3 |
| 20260509024027 | 61 | 311 | 12.0 | 20.0 | 0.00 | 0.78 | 0.00 | 76 | 997.4 |
| 20260509023022 | 60 | 303 | 14.0 | 29.0 | 0.00 | 0.78 | 0.00 | 77 | 997.4 |
| 20260509022035 | 59 | 306 | 13.0 | 27.0 | 0.00 | 0.78 | 0.00 | 80 | 997.5 |
| 20260509021050 | 58 | 306 | 18.0 | 27.0 | 0.00 | 0.78 | 0.00 | 80 | 997.5 |
| 20260509020025 | 58 | 305 | 18.0 | 31.0 | 0.00 | 0.78 | 0.00 | 80 | 997.6 |
| 20260509015020 | 58 | 305 | 18.0 | 28.0 | 0.00 | 0.78 | 0.00 | 80 | 997.4 |
| 20260509014036 | 58 | 308 | 19.0 | 33.0 | 0.00 | 0.78 | 0.00 | 79 | 997.6 |
| 20260509013030 | 58 | 305 | 19.0 | 31.0 | 0.00 | 0.78 | 0.00 | 79 | 997.8 |
| 20260509012025 | 58 | 308 | 16.0 | 26.0 | 0.00 | 0.78 | 0.00 | 80 | 997.5 |
| 20260509011041 | 57 | 313 | 19.0 | 37.0 | 0.00 | 0.78 | 0.00 | 81 | 997.1 |
| 20260509010035 | 57 | 313 | 18.0 | 32.0 | 0.00 | 0.78 | 0.00 | 82 | 997.3 |
| 20260509005030 | 57 | 313 | 16.0 | 24.0 | 0.00 | 0.78 | 0.00 | 83 | 997.5 |
| 20260509004025 | 57 | 308 | 15.0 | 28.0 | 0.00 | 0.78 | 0.00 | 83 | 997.7 |
| 20260509003040 | 57 | 308 | 20.0 | 34.0 | 0.00 | 0.78 | 0.00 | 82 | 997.6 |
| 20260509002033 | 58 | 305 | 22.0 | 39.0 | 0.00 | 0.78 | 0.00 | 81 | 997.8 |
| 20260509001027 | 58 | 307 | 24.0 | 45.0 | 0.00 | 0.78 | 0.00 | 81 | 997.9 |
| 20260509000021 | 58 | 312 | 21.0 | 35.0 | 0.00 | 0.78 | 0.00 | 81 | 998.0 |
| 20260508235016 | 59 | 311 | 26.0 | 45.0 | 0.00 | 0.78 | 0.00 | 80 | 998.0 |
| 20260508234051 | 59 | 308 | 26.0 | 53.0 | 0.00 | 0.78 | 0.00 | 82 | 998.0 |
| 20260508233026 | 58 | 301 | 23.0 | 36.0 | 0.00 | 0.78 | 0.00 | 82 | 997.9 |
| 20260508232021 | 58 | 307 | 24.0 | 39.0 | 0.00 | 0.78 | 0.00 | 83 | 997.8 |
| 20260508231016 | 58 | 328 | 17.0 | 30.0 | 0.00 | 0.78 | 0.00 | 83 | 997.8 |
| 20260508230031 | 58 | 312 | 22.0 | 36.0 | 0.00 | 0.78 | 0.00 | 82 | 998.0 |
| 20260508225026 | 58 | 320 | 21.0 | 35.0 | 0.00 | 0.78 | 0.00 | 83 | 998.1 |
| 20260508224021 | 58 | 301 | 22.0 | 47.0 | 0.00 | 0.78 | 0.00 | 82 | 998.1 |
| 20260508223016 | 58 | 302 | 29.0 | 53.0 | 0.00 | 0.78 | 0.00 | 82 | 998.3 |
| 20260508222031 | 58 | 313 | 27.0 | 44.0 | 0.00 | 0.78 | 0.00 | 82 | 998.4 |
| 20260508221026 | 58 | 303 | 24.0 | 43.0 | 0.00 | 0.78 | 0.00 | 82 | 998.4 |
| 20260508220021 | 58 | 314 | 18.0 | 34.0 | 0.00 | 0.78 | 0.00 | 81 | 998.4 |
| 20260508215017 | 58 | 309 | 19.0 | 39.0 | 0.00 | 0.78 | 0.00 | 83 | 998.5 |
| 20260508214032 | 57 | 311 | 23.0 | 43.0 | 0.00 | 0.78 | 0.00 | 82 | 998.6 |
| 20260508213047 | 57 | 308 | 26.0 | 46.0 | 0.00 | 0.78 | 0.00 | 83 | 999.0 |
| 20260508212022 | 57 | 318 | 21.0 | 41.0 | 0.00 | 0.78 | 0.00 | 83 | 999.1 |
| 20260508211017 | 57 | 306 | 20.0 | 41.0 | 0.00 | 0.78 | 0.00 | 81 | 999.2 |
| 20260508210052 | 57 | 308 | 25.0 | 39.0 | 0.00 | 0.79 | 0.00 | 83 | 999.0 |
| 20260508205027 | 57 | 307 | 21.0 | 40.0 | 0.00 | 0.80 | 0.00 | 84 | 999.0 |
| 20260508204022 | 56 | 317 | 23.0 | 38.0 | 0.00 | 0.80 | 0.00 | 85 | 998.6 |
| 20260508203017 | 57 | 327 | 18.0 | 34.0 | 0.00 | 0.80 | 0.00 | 82 | 998.4 |
| 20260508202032 | 57 | 322 | 27.0 | 48.0 | 0.00 | 0.81 | 0.00 | 80 | 998.3 |
| 20260508201027 | 57 | 305 | 28.0 | 46.0 | 0.00 | 0.81 | 0.00 | 79 | 998.6 |
| 20260508200023 | 57 | 303 | 33.0 | 46.0 | 0.00 | 0.83 | 0.00 | 79 | 998.3 |
| 20260508195018 | 57 | 311 | 25.0 | 42.0 | 0.00 | 0.85 | 0.00 | 81 | 997.1 |
| 20260508194033 | 57 | 327 | 25.0 | 42.0 | 0.00 | 0.86 | 0.00 | 84 | 996.0 |
| 20260508193028 | 57 | 329 | 28.0 | 45.0 | 0.00 | 0.87 | 0.00 | 84 | 995.9 |
| 20260508192023 | 57 | 329 | 25.0 | 42.0 | 0.00 | 0.88 | 0.00 | 82 | 996.1 |
| 20260508191018 | 57 | 322 | 28.0 | 46.0 | 0.00 | 0.92 | 0.00 | 81 | 996.3 |
| 20260508190033 | 56 | 315 | 28.0 | 47.0 | 0.00 | 0.93 | 0.00 | 81 | 996.5 |
| 20260508185028 | 56 | 326 | 26.0 | 51.0 | 0.00 | 0.93 | 0.00 | 82 | 996.6 |
| 20260508184023 | 57 | 314 | 28.0 | 51.0 | 0.00 | 0.93 | 0.00 | 83 | 997.0 |
| 20260508183018 | 57 | 313 | 27.0 | 53.0 | 0.00 | 0.93 | 0.00 | 82 | 997.0 |
| 20260508182033 | 57 | 320 | 33.0 | 64.0 | 0.00 | 0.93 | 0.00 | 82 | 997.0 |
| 20260508181049 | 57 | 307 | 33.0 | 59.0 | 0.00 | 0.93 | 0.00 | 82 | 997.2 |
| 20260508180044 | 57 | 310 | 26.0 | 46.0 | 0.00 | 0.94 | 0.00 | 83 | 997.3 |
| 20260508175018 | 57 | 326 | 29.0 | 47.0 | 0.00 | 0.94 | 0.00 | 84 | 997.3 |
| 20260508174033 | 57 | 327 | 26.0 | 45.0 | 0.00 | 0.94 | 0.00 | 84 | 997.4 |
| 20260508173028 | 57 | 324 | 25.0 | 51.0 | 0.00 | 0.95 | 0.00 | 85 | 997.3 |
| 20260508172024 | 57 | 321 | 28.0 | 49.0 | 0.00 | 0.95 | 0.00 | 85 | 997.1 |
| 20260508171019 | 57 | 319 | 30.0 | 49.0 | 0.00 | 0.97 | 0.00 | 84 | 997.4 |
| 20260508170034 | 57 | 316 | 28.0 | 54.0 | 0.00 | 1.00 | 0.00 | 84 | 997.6 |
| 20260508165029 | 57 | 321 | 27.0 | 43.0 | 0.00 | 1.01 | 0.00 | 85 | 997.5 |
| 20260508164024 | 57 | 315 | 30.0 | 48.0 | 0.00 | 1.01 | 0.00 | 86 | 997.8 |
| 20260508163039 | 57 | 308 | 26.0 | 51.0 | 0.00 | 1.02 | 0.00 | 87 | 997.8 |
| 20260508162054 | 57 | 314 | 22.0 | 36.0 | 0.00 | 1.02 | 0.00 | 87 | 997.8 |
| 20260508161029 | 57 | 318 | 22.0 | 35.0 | 0.00 | 1.03 | 0.00 | 87 | 997.9 |
| 20260508160024 | 57 | 325 | 24.0 | 53.0 | 0.00 | 1.03 | 0.00 | 86 | 998.0 |
| 20260508155039 | 57 | 323 | 30.0 | 55.0 | 0.00 | 1.03 | 0.00 | 86 | 998.3 |
| 20260508154034 | 57 | 314 | 25.0 | 50.0 | 0.00 | 1.03 | 0.00 | 87 | 998.4 |
| 20260508153030 | 57 | 320 | 30.0 | 52.0 | 0.00 | 1.03 | 0.00 | 87 | 998.5 |
| 20260508152024 | 57 | 322 | 32.0 | 50.0 | 0.00 | 1.03 | 0.00 | 86 | 998.3 |
| 20260508151020 | 57 | 315 | 28.0 | 45.0 | 0.00 | 1.04 | 0.00 | 85 | 998.1 |
| 20260508150035 | 57 | 314 | 30.0 | 45.0 | 0.00 | 1.04 | 0.00 | 85 | 998.2 |
| 20260508144045 | 57 | 327 | 28.0 | 51.0 | 0.00 | 1.07 | 0.00 | 86 | 998.0 |
| 20260508143020 | 57 | 309 | 32.0 | 56.0 | 0.00 | 1.08 | 0.00 | 86 | 998.5 |
| 20260508142035 | 57 | 308 | 30.0 | 45.0 | 0.00 | 1.09 | 0.00 | 86 | 998.5 |
| 20260508141031 | 57 | 311 | 33.0 | 67.0 | 0.00 | 1.11 | 0.00 | 86 | 998.4 |
| 20260508140025 | 57 | 314 | 27.0 | 51.0 | 0.00 | 1.13 | 0.00 | 86 | 998.5 |
| 20260508135021 | 57 | 309 | 29.0 | 46.0 | 0.00 | 1.14 | 0.00 | 85 | 998.6 |
| 20260508134016 | 57 | 303 | 33.0 | 55.0 | 0.00 | 1.16 | 0.00 | 85 | 998.6 |
| 20260508133031 | 57 | 306 | 29.0 | 47.0 | 0.00 | 1.18 | 0.00 | 84 | 998.7 |
| 20260508132026 | 58 | 301 | 38.0 | 62.0 | 0.00 | 1.20 | 0.00 | 83 | 998.7 |
| 20260508131021 | 58 | 305 | 36.0 | 58.0 | 0.00 | 1.20 | 0.00 | 83 | 998.8 |
| 20260508130016 | 58 | 303 | 32.0 | 60.0 | 0.00 | 1.20 | 0.00 | 81 | 998.7 |
| 20260508125031 | 58 | 299 | 36.0 | 55.0 | 0.00 | 1.20 | 0.00 | 81 | 998.7 |
| 20260508124026 | 58 | 298 | 35.0 | 65.0 | 0.00 | 1.21 | 0.00 | 83 | 998.7 |
| 20260508123021 | 58 | 309 | 36.0 | 53.0 | 0.00 | 1.22 | 0.00 | 85 | 998.6 |
| 20260508122016 | 57 | 303 | 35.0 | 59.0 | 0.00 | 1.22 | 0.00 | 87 | 998.6 |
| 20260508121031 | 57 | 303 | 30.0 | 51.0 | 0.00 | 1.23 | 0.00 | 87 | 998.5 |
| 20260508120026 | 57 | 307 | 30.0 | 55.0 | 0.00 | 1.23 | 1.23 | 87 | 998.6 |
| 20260508115021 | 57 | 305 | 33.0 | 59.0 | 0.00 | 1.23 | 1.23 | 87 | 998.7 |
| 20260508114037 | 57 | 301 | 29.0 | 47.0 | 0.00 | 1.23 | 1.23 | 88 | 998.8 |
| 20260508113031 | 57 | 316 | 28.0 | 46.0 | 0.00 | 1.23 | 1.23 | 88 | 998.8 |
| 20260508112027 | 57 | 308 | 26.0 | 48.0 | 0.00 | 1.23 | 1.23 | 88 | 999.0 |
| 20260508111042 | 56 | 315 | 25.0 | 43.0 | 0.00 | 1.23 | 1.23 | 88 | 999.2 |
| 20260508110017 | 56 | 325 | 25.0 | 48.0 | 0.00 | 1.23 | 1.23 | 90 | 999.1 |
| 20260508105032 | 56 | 310 | 24.0 | 47.0 | 0.00 | 1.23 | 1.23 | 90 | 999.4 |
| 20260508104027 | 56 | 314 | 31.0 | 51.0 | 0.00 | 1.23 | 1.23 | 90 | 999.8 |
| 20260508103022 | 56 | 308 | 25.0 | 39.0 | 0.01 | 1.23 | 1.23 | 91 | 999.8 |
| 20260508102017 | 55 | 322 | 25.0 | 41.0 | 0.03 | 1.23 | 1.23 | 92 | 1000.1 |
| 20260508101032 | 55 | 309 | 22.0 | 37.0 | 0.06 | 1.23 | 1.23 | 92 | 1000.4 |
| 20260508100027 | 54 | 311 | 21.0 | 32.0 | 0.12 | 1.23 | 1.23 | 92 | 1000.3 |
| 20260508095022 | 53 | 323 | 20.0 | 32.0 | 0.26 | 1.23 | 1.23 | 93 | 1000.3 |
| 20260508094018 | 52 | 313 | 19.0 | 33.0 | 0.36 | 1.23 | 1.22 | 94 | 1000.4 |
| 20260508093033 | 52 | 307 | 24.0 | 48.0 | 0.44 | 1.22 | 1.22 | 94 | 1000.9 |
| 20260508092028 | 53 | 317 | 21.0 | 36.0 | 0.46 | 1.20 | 1.20 | 95 | 1001.1 |